Powrót do katalogu

CZ-2C DEB

AktywnySSO
NORAD 40264·DEBRIS·🇨🇳 China

Wystrzelony Sep 28, 2014 z Jiuquan Satellite Launch Center

Loading…

Następne Przeloty (najbliższe 24 godziny)

TLE

ŚwieżeSource: Space-Track

Epoka: Sep 14, 2026, 05:11 UTC

1 40264U 14059D   26257.21639512  .00010762  00000-0  87880-3 0  9996
2 40264  97.8121 158.5041 0045553 185.2243 174.8510 14.98767824636486

Śledź CZ-2C DEB w czasie rzeczywistym z AllMySat

Download on the App Store